Regional Weather Roundup
Issued by NWS Boston, MA

Current Version | Previous Version | Text Only | Print | Product List | Glossary Off
Versions: 1 2 3 4 5 6 7 8 9 10 11 12 13 14 15 16 17 18 19 20 21 22 23 24 25 26 27 28 29 30 31 32 33 34 35 36 37 38 39 40 41 42 43 44 45 46 47 48 49 50
000 ASUS41 KBOX 211810 RWRBOX REGIONAL WEATHER ROUNDUP NATIONAL WEATHER SERVICE BOSTON/NORTON MA 200 PM EDT TUE MAY 21 2019 NOTE: "FAIR" INDICATES FEW OR NO CLOUDS BELOW 12,000 FEET WITH NO SIGNIFICANT WEATHER AND/OR OBSTRUCTIONS TO VISIBILITY. MAZALL-211900- EASTERN MASSACHUSETTS CITY SKY/WX TMP DP RH WIND PRES REMARKS BOSTON FAIR 69 35 28 W22G36 29.76S 6HR MIN TEMP: 61; 6HR MAX TEMP: 71; BEVERLY FAIR 66 38 35 NW20G30 29.75S LAWRENCE FAIR 66 37 34 W17G29 29.77S BEDFORD FAIR 68 36 30 W23G33 29.77R BLUE HILL N/A 66 39 37 NW17G33 29.75F NORWOOD FAIR 71 38 29 W17G30 29.77S MARSHFIELD FAIR 68 37 32 W13G21 29.75S PLYMOUTH FAIR 68 38 33 W18G26 29.76F TAUNTON FAIR 70 37 29 NW15G24 29.77S NEW BEDFORD FAIR 67 43 41 W18 29.77F $$ MAZALL-211900- CAPE COD AND THE ISLANDS CITY SKY/WX TMP DP RH WIND PRES REMARKS FALMOUTH FAIR 66 39 37 W18G31 29.77S HYANNIS FAIR 69 40 34 NW14G21 29.74F CHATHAM FAIR 67 40 37 VRB5G17 29.77S PROVINCETOWN FAIR 63 45 51 NW12 29.77S NANTUCKET FAIR 65 44 46 W18 29.78F MARTHAS VNYRD FAIR 68 37 32 W18G24 29.79S $$ MAZALL-211900- CENTRAL AND WESTERN MASSACHUSETTS CITY SKY/WX TMP DP RH WIND PRES REMARKS WORCESTER FAIR 62 38 40 NW26G33 29.81S 6HR MIN TEMP: 51; 6HR MAX TEMP: 62; FITCHBURG FAIR 66 36 32 W26G35 29.80F ORANGE FAIR 64 35 34 W18 29.84S SPRINGFIELD MOSUNNY 66 38 36 W21G26 29.85R WESTFIELD FAIR 65 37 35 NW22G36 29.87S NORTH ADAMS PTSUNNY 60 38 43 W15G31 29.87F PITTSFIELD FAIR 60 38 43 W26G35 29.88S $$ RIZALL-211900- RHODE ISLAND CITY SKY/WX TMP DP RH WIND PRES REMARKS PROVIDENCE FAIR 68 40 35 W16G28 29.80F 6HR MIN TEMP: 57; 6HR MAX TEMP: 68; NEWPORT FAIR 66 42 41 W14G22 29.80S BLOCK ISLAND FAIR 63 44 50 W14G24 29.84S SMITHFIELD FAIR 65 40 39 W20G26 29.80F WESTERLY FAIR 69 39 33 NW14G30 29.83S $$ CTZALL-211900- CONNECTICUT CITY SKY/WX TMP DP RH WIND PRES REMARKS BRADLEY INTL FAIR 67 38 34 NW23G32 29.86R 6HR MIN TEMP: 55; 6HR MAX TEMP: 68; HARTFORD FAIR 67 38 34 NW21G32 29.85S BRIDGEPORT FAIR 70 38 31 NW21G32 29.87F DANBURY FAIR 67 38 34 N12G25 29.90F GROTON FAIR 69 38 32 NW21G31 29.83S NEW HAVEN FAIR 70 40 33 NW10G20 29.86F CHESTER FAIR 68 36 30 NW20G28 29.85F MERIDEN FAIR 69 36 29 NW15G35 29.86S WILLIMANTIC FAIR 66 39 37 NW20G29 29.84F OXFORD FAIR 64 39 39 NW15G31 29.89S $$ MEZ002-015-021-024-NHZ003-005-008-011-012-014-VTZ005-008-211900- NORTHERN NEW ENGLAND CITY SKY/WX TMP DP RH WIND PRES REMARKS PORTLAND ME PTSUNNY 62 36 37 NW21G32 29.72R 6HR MIN TEMP: 57; 6HR MAX TEMP: 63; BANGOR ME PTSUNNY 58 37 45 NW25 29.62R CONCORD NH FAIR 63 35 35 NW17G39 29.78R MANCHESTER NH PTSUNNY 64 33 31 NW17G29 29.76F NASHUA NH FAIR 66 35 31 NW18G32 29.78S PORTSMOUTH NH MOSUNNY 66 35 32 W17G31 29.73R JAFFREY NH FAIR 61 33 35 NW18G30 29.82F KEENE NH FAIR 62 36 37 W22G38 29.83S BURLINGTON VT PTSUNNY 57 36 45 NW16G26 29.87S MT. WASHINGTON SNOWSHWR 27 27 100 W75G96 N/A VSB 1/16WCI 4 $$ NYZ052-076-211900- EASTERN NEW YORK CITY SKY/WX TMP DP RH WIND PRES REMARKS ALBANY FAIR 63 40 42 NW22G31 29.94S 6HR MIN TEMP: 53; 6HR MAX TEMP: 63; NEW YORK CITY FAIR 68 37 32 NW21G28 29.91F 6HR MIN TEMP: 57; 6HR MAX TEMP: 68; $$ ANZALL-211900- MARINE OBSERVATIONS STATION/POSITION TIME TEMP WIND PRES VSBY WAVE AIR SEA DIR/SP/G HT/PER (UTC) (F) (DEG/KT/KT) (MB) (MI) (FT/S) BOSTON BUOY 1750 58 51 290/ 16/ 17 1006.7F 2/ 4 BUZZARDS BAY NOT AVBL NANTUCKET SOUND 1750 55 260/ 12/ 17 1008.1F 2/ 3 MASS BAY-STELLWA NOT AVBL ISLE OF SHOALS 1700 58 290/ 28/ 34 1005.6F S OF BLOCK IS 1730 53 N/A 4/ 7 $$ ......................KEY......................... SKY/WX - SKY CONDITION/PRESENT WEATHER TMP - TEMPERATURE IN FAHRENHEIT DWPT - DEWPOINT IN FAHRENHEIT RH - RELATIVE HUMIDITY IN PERCENT WIND - DIRECTION AND SPEED IN MPH PRES - MEAN SEA LEVEL PRESSURE IN INCHES OF HG WCI - WIND CHILL INDEX VSB - VISIBILITY IN MILES HX - HEAT INDEX TC - TEMPERATURE IN CELSIUS VRB - VARIABLE WIND DIRECTION N/A - NOT AVAILABLE

USA.gov is the U.S. government's official web portal to all federal, state and local government web resources and services.